When you browse on this site, cookies collect data to enhance your experience and personalize the content and advertising you see.
Visit our Privacy Policy to learn more. By continuing to use the site, you agree to this use of cookies and data.
  • In France
  • List of Countries
  • For 7 days
  • Water Temperature
  • Weather Map
  • Weather Widgets
  • user-avatar
    Login

    Hourly Weather Mongu

    Today, 13 December, Friday

    Time Temperature Precipitation Wind Pressure Humidity
    00:00 +24°C° 0.4 mm 2 mps 673 mmHg 74%
    01:00 +22°C° 0.4 mm 3 mps 672 mmHg 79%
    02:00 +21°C° 0 mm 3 mps 673 mmHg 83%
    03:00 +21°C° 0 mm 3 mps 672 mmHg 85%
    04:00 +20°C° 0 mm 3 mps 672 mmHg 87%
    05:00 +20°C° 0 mm 2 mps 672 mmHg 89%
    06:00 +21°C° 0 mm 2 mps 673 mmHg 84%
    07:00 +24°C° 0 mm 2 mps 674 mmHg 78%
    08:00 +25°C° 0 mm 2 mps 675 mmHg 72%
    09:00 +28°C° 0 mm 2 mps 675 mmHg 62%
    10:00 +30°C° 0 mm 2 mps 675 mmHg 53%
    11:00 +32°C° 0 mm 2 mps 675 mmHg 43%
    12:00 +34°C° 0 mm 2 mps 675 mmHg 41%
    13:00 +34°C° 0 mm 2 mps 674 mmHg 39%
    14:00 +34°C° 0 mm 3 mps 673 mmHg 37%
    15:00 +34°C° 0 mm 2 mps 673 mmHg 38%
    16:00 +34°C° 0 mm 2 mps 673 mmHg 38%
    17:00 +34°C° 0 mm 2 mps 672 mmHg 39%
    18:00 +31°C° 0 mm 2 mps 672 mmHg 43%
    19:00 +30°C° 0 mm 2 mps 673 mmHg 48%
    20:00 +28°C° 0 mm 2 mps 673 mmHg 53%
    21:00 +27°C° 0 mm 1 mps 673 mmHg 55%
    22:00 +26°C° 0 mm 1 mps 673 mmHg 57%
    23:00 +25°C° 0 mm 1 mps 673 mmHg 59%

    Tomorrow, 14 December, Saturday

    Time Temperature Precipitation Wind Pressure Humidity
    00:00 +25°C° 0 mm 2 mps 673 mmHg 62%
    01:00 +24°C° 0 mm 2 mps 673 mmHg 65%
    02:00 +24°C° 0 mm 2 mps 673 mmHg 68%
    03:00 +23°C° 0 mm 2 mps 673 mmHg 72%
    04:00 +23°C° 0 mm 2 mps 673 mmHg 76%
    05:00 +21°C° 0 mm 2 mps 673 mmHg 80%
    06:00 +23°C° 0 mm 2 mps 673 mmHg 76%
    07:00 +25°C° 0 mm 2 mps 674 mmHg 72%
    08:00 +26°C° 0 mm 3 mps 675 mmHg 68%
    09:00 +28°C° 0 mm 3 mps 675 mmHg 59%
    10:00 +30°C° 0 mm 4 mps 675 mmHg 49%
    11:00 +33°C° 0 mm 4 mps 675 mmHg 40%
    12:00 +34°C° 0 mm 4 mps 674 mmHg 38%
    13:00 +34°C° 0 mm 4 mps 674 mmHg 36%
    14:00 +35°C° 0 mm 3 mps 673 mmHg 34%
    15:00 +34°C° 0 mm 3 mps 673 mmHg 35%
    16:00 +34°C° 0 mm 2 mps 673 mmHg 36%
    17:00 +34°C° 0 mm 2 mps 672 mmHg 37%
    18:00 +31°C° 0 mm 2 mps 672 mmHg 41%
    19:00 +29°C° 0 mm 2 mps 673 mmHg 45%
    20:00 +28°C° 0 mm 1 mps 673 mmHg 49%
    21:00 +27°C° 0.3 mm 2 mps 673 mmHg 58%
    22:00 +26°C° 0.3 mm 2 mps 673 mmHg 67%
    23:00 +25°C° 0.3 mm 3 mps 673 mmHg 76%

    Day after tomorrow, 15 December, Sunday

    Time Temperature Precipitation Wind Pressure Humidity
    00:00 +24°C° 0 mm 2 mps 673 mmHg 79%
    01:00 +24°C° 0 mm 2 mps 673 mmHg 81%
    02:00 +23°C° 0 mm 2 mps 672 mmHg 84%
    03:00 +23°C° 0 mm 2 mps 672 mmHg 83%
    04:00 +23°C° 0 mm 2 mps 672 mmHg 83%
    05:00 +23°C° 0 mm 2 mps 673 mmHg 82%
    06:00 +23°C° 0 mm 2 mps 673 mmHg 79%
    07:00 +24°C° 0 mm 2 mps 674 mmHg 76%
    08:00 +25°C° 0 mm 2 mps 674 mmHg 74%
    09:00 +26°C° 0.3 mm 2 mps 674 mmHg 70%
    10:00 +27°C° 0.3 mm 3 mps 675 mmHg 66%
    11:00 +28°C° 0.3 mm 3 mps 675 mmHg 62%
    12:00 +27°C° 0.6 mm 3 mps 674 mmHg 63%
    13:00 +27°C° 0.6 mm 3 mps 674 mmHg 65%
    14:00 +27°C° 0.6 mm 3 mps 673 mmHg 66%
    15:00 +26°C° 0.2 mm 3 mps 673 mmHg 67%
    16:00 +26°C° 0.2 mm 2 mps 672 mmHg 68%
    17:00 +26°C° 0.2 mm 1 mps 672 mmHg 69%
    18:00 +25°C° 0 mm 1 mps 672 mmHg 73%
    19:00 +24°C° 0 mm 1 mps 672 mmHg 78%
    20:00 +23°C° 0 mm 1 mps 672 mmHg 82%
    21:00 +21°C° 0 mm 2 mps 672 mmHg 83%
    22:00 +21°C° 0 mm 2 mps 672 mmHg 84%
    23:00 +21°C° 0 mm 2 mps 673 mmHg 85%

    16 December, Monday

    Time Temperature Precipitation Wind Pressure Humidity
    00:00 +21°C° 0 mm 2 mps 672 mmHg 85%
    01:00 +21°C° 0 mm 2 mps 672 mmHg 85%
    02:00 +20°C° 0 mm 2 mps 672 mmHg 85%
    03:00 +21°C° 0 mm 2 mps 672 mmHg 85%
    04:00 +21°C° 0 mm 3 mps 672 mmHg 84%
    05:00 +21°C° 0 mm 3 mps 672 mmHg 84%
    06:00 +21°C° 0 mm 3 mps 672 mmHg 82%
    07:00 +22°C° 0 mm 3 mps 673 mmHg 80%
    08:00 +22°C° 0 mm 3 mps 673 mmHg 77%
    09:00 +24°C° 0 mm 3 mps 674 mmHg 76%
    10:00 +24°C° 0 mm 3 mps 674 mmHg 75%
    11:00 +24°C° 0 mm 3 mps 674 mmHg 74%
    12:00 +26°C° 0 mm 3 mps 674 mmHg 69%
    13:00 +27°C° 0 mm 4 mps 673 mmHg 64%
    14:00 +28°C° 0 mm 4 mps 673 mmHg 59%
    15:00 +28°C° 0.3 mm 3 mps 672 mmHg 60%
    16:00 +28°C° 0.3 mm 3 mps 672 mmHg 61%
    17:00 +28°C° 0.3 mm 2 mps 672 mmHg 62%
    18:00 +26°C° 0 mm 2 mps 672 mmHg 68%
    19:00 +25°C° 0 mm 2 mps 672 mmHg 75%
    20:00 +23°C° 0 mm 2 mps 672 mmHg 81%
    21:00 +23°C° 0 mm 2 mps 672 mmHg 83%
    22:00 +21°C° 0 mm 2 mps 672 mmHg 85%
    23:00 +21°C° 0 mm 2 mps 673 mmHg 87%

    17 December, Tuesday

    Time Temperature Precipitation Wind Pressure Humidity
    00:00 +22°C° 0 mm 1 mps 672 mmHg 86%
    01:00 +22°C° 0 mm 1 mps 672 mmHg 86%
    02:00 +22°C° 0 mm 1 mps 672 mmHg 85%
    03:00 +22°C° 0 mm 1 mps 672 mmHg 85%
    04:00 +22°C° 0 mm 1 mps 672 mmHg 85%
    05:00 +22°C° 0 mm 1 mps 672 mmHg 85%
    06:00 +23°C° 0 mm 1 mps 673 mmHg 80%
    07:00 +24°C° 0 mm 2 mps 674 mmHg 75%
    08:00 +25°C° 0 mm 2 mps 674 mmHg 70%
    09:00 +27°C° 0.1 mm 3 mps 674 mmHg 62%
    10:00 +28°C° 0.1 mm 4 mps 675 mmHg 54%
    11:00 +30°C° 0.1 mm 5 mps 675 mmHg 46%
    12:00 +30°C° 0 mm 5 mps 674 mmHg 45%
    13:00 +32°C° 0 mm 5 mps 674 mmHg 45%
    14:00 +32°C° 0 mm 5 mps 673 mmHg 44%
    15:00 +32°C° 0 mm 4 mps 673 mmHg 44%
    16:00 +32°C° 0 mm 4 mps 672 mmHg 45%
    17:00 +31°C° 0 mm 3 mps 672 mmHg 45%
    18:00 +29°C° 0 mm 3 mps 672 mmHg 51%
    19:00 +27°C° 0 mm 3 mps 672 mmHg 58%
    20:00 +25°C° 0 mm 2 mps 672 mmHg 64%
    21:00 +25°C° 0 mm 2 mps 672 mmHg 67%
    22:00 +24°C° 0 mm 2 mps 672 mmHg 71%
    23:00 +23°C° 0 mm 2 mps 673 mmHg 74%

    18 December, Wednesday

    Time Temperature Precipitation Wind Pressure Humidity
    00:00 +23°C° 0 mm 2 mps 672 mmHg 78%
    01:00 +21°C° 0 mm 2 mps 672 mmHg 81%
    02:00 +22°C° 0 mm 1 mps 671 mmHg 84%
    03:00 +20°C° 0 mm 2 mps 671 mmHg 86%
    04:00 +20°C° 0 mm 2 mps 672 mmHg 87%
    05:00 +20°C° 0 mm 2 mps 672 mmHg 89%
    06:00 +21°C° 0 mm 2 mps 672 mmHg 81%
    07:00 +24°C° 0 mm 3 mps 673 mmHg 74%
    08:00 +25°C° 0 mm 3 mps 674 mmHg 66%
    09:00 +28°C° 0 mm 3 mps 674 mmHg 56%
    10:00 +30°C° 0 mm 4 mps 674 mmHg 46%
    11:00 +33°C° 0 mm 4 mps 675 mmHg 36%
    12:00 +34°C° 0 mm 4 mps 674 mmHg 33%
    13:00 +35°C° 0 mm 4 mps 673 mmHg 30%
    14:00 +36°C° 0 mm 4 mps 673 mmHg 27%
    15:00 +36°C° 0 mm 4 mps 672 mmHg 27%
    16:00 +35°C° 0 mm 4 mps 671 mmHg 28%
    17:00 +35°C° 0 mm 4 mps 671 mmHg 29%
    18:00 +31°C° 0 mm 3 mps 671 mmHg 35%
    19:00 +29°C° 0 mm 3 mps 671 mmHg 41%
    20:00 +27°C° 0 mm 2 mps 671 mmHg 47%
    21:00 +26°C° 0 mm 2 mps 671 mmHg 51%
    22:00 +25°C° 0 mm 2 mps 672 mmHg 55%
    23:00 +24°C° 0 mm 2 mps 672 mmHg 59%
    Show more